Accueil
METAR-TAF:

METAR-TAF

Aéroports :

Sapporo, Japon

latitude: 43-07N, longitude: 141-23E, altitude: 8 m

Observation

Le bulletin a été fait il y a 1 heure et 11 minutes, à 09:10 UTC
Vent 6 kt de ouest
Température 11°C
Humidité 71%
Pression 1012 hPa
Visibilité 10 km ou plus
Quelques nuages à une hauteur de 2000 ft
Nuages épars à une hauteur de 2500 ft
Nuages fragmentés à une hauteur de 6000 ft
faibles averses de pluie

METAR: RJCO 160910Z 28006KT 9999 -SHRA FEW020 SCT025 BKN060 11/06 Q1012 RETS RMK 1CU020 3CU025 5CU060 A2990

Heure: 19:21 (10:21 UTC)


TAF: absent

Observations et prévisions météorologiques de plus de 4000 aéroports (messages METAR et TAF).

Les stations disponibles sont représentées par des disques jaunes et rouges sur la carte.

Passer la souris dessus pour voir le nom de la station.

Cliquer dessus pour voir les observations et prévisions météorologiques.

Pour changer de carte: cliquez sur les boutons verts avec une croix noire pour zoomer, sur le bouton vert avec un tiret pour effectuer un zoom arrière, ou sur les flèches vertes pour les cartes adjacentes.


METAR-TAF: